Tracking 27419 objects as of 10-Jun-2023
HD Live streaming from Space Station
objects crossing your sky now

STARLINK-1629

Track STARLINK-1629 now!
10-day predictions
STARLINK-1629 is classified as:


NORAD ID: 46150
Int'l Code: 2020-057AK
Perigee: 553.5 km
Apogee: 555.2 km
Inclination: 53.1 °
Period: 95.6 minutes
Semi major axis: 6925 km
RCS: Unknown
Launch date: August 18, 2020
Source: United States (US)
Launch site: AIR FORCE EASTERN TEST RANGE (AFETR)
Your satellite tracking list
Your tracking list is empty




NASA's NSSDC Master Catalog

Two Line Element Set (TLE):
1 46150U 20057AK  23160.22660029  .00001103  00000-0  92968-4 0  9992
2 46150  53.0537 145.8239 0001221  81.0368 279.0759 15.06393098154671
Source of the keplerian elements: AFSPC